Weather History for Jackson, KY

Change the Weather History Date:

Sunday, June 23, 2013

  Actual Average Record
Temperature  
Mean Temperature 76 °F 74 °F  
Max Temperature 86 °F 83 °F 96 °F (1988)
Min Temperature 65 °F 64 °F 53 °F (1992)
Degree Days  
Heating Degree Days 0 0  
Month to date heating degree days 0 9  
Since 1 June heating degree days 0 9  
Since 1 July heating degree days 4364 4231  
Cooling Degree Days 11 9  
Month to date cooling degree days 158 157  
Year to date cooling degree days 306 293  
Since 1 June cooling degree days 158 157  
Growing Degree Days 24 (Base 50)    
Moisture  
Dew Point 65 °F    
Average Humidity 72    
Maximum Humidity 93    
Minimum Humidity 51    
Precipitation  
Precipitation 0.00 in 0.14 in 0.99 in (2006)
Month to date precipitation 5.22 3.68  
Year to date precipitation 25.42 24.19  
Snow  
Snow 0.00 in 0.00 in - ()
Month to date snowfall 0.0 0.0  
Since 1 June snowfall 0.0 0.0  
Since 1 July snowfall 20.0 23.5  
Snow Depth 0.00 in    
Sea Level Pressure  
Sea Level Pressure 30.13 in    
Wind  
Wind Speed 1 mph (South)    
Max Wind Speed 6 mph    
Max Gust Speed 10 mph    
Visibility 10 miles    
Events      
T = Trace of Precipitation, MM = Missing Value Source: NWS Daily Summary

Daily Weather History Graph

Daily Weather History Graph

Search for Another Location

Airport:

Trip Planner

Search our weather history database for the weather conditions in past years. The results will help you decide how hot, cold, wet, or windy it might be!

Date:

Astronomy

Jun. 23, 2013 Rise Set
Actual Time 6:12 AM EDT 8:58 PM EDT
Civil Twilight 5:41 AM EDT 9:29 PM EDT
Nautical Twilight 5:02 AM EDT 10:08 PM EDT
Astronomical Twilight 4:18 AM EDT 10:52 PM EDT
Moon 9:11 PM EDT (6/23) 6:27 AM EDT (6/23)
Length of Visible Light 15h 48m
Length of Day
14h 45m
Full, 100% of the Moon is Illuminated
Jun 23
Full
Jun 30
Last Quarter
Jul 8
New
Jul 15
First Quarter
Jul 22
Full

Hourly Weather History & Observations

Time (EDT) Temp. Heat Index Dew Point Humidity Pressure Visibility Wind Dir Wind Speed Gust Speed Precip Events Conditions
12:53 AM 69.1 °F - 66.0 °F 90% 30.13 in 10.0 mi Calm Calm - N/A   Clear
1:53 AM 70.0 °F - 66.0 °F 87% 30.11 in 10.0 mi South 3.5 mph - N/A   Clear
2:53 AM 69.1 °F - 64.0 °F 84% 30.09 in 10.0 mi South 3.5 mph - N/A   Clear
3:53 AM 69.1 °F - 63.0 °F 81% 30.09 in 10.0 mi South 3.5 mph - N/A   Clear
4:53 AM 64.9 °F - 63.0 °F 93% 30.10 in 9.0 mi Calm Calm - N/A   Clear
5:53 AM 64.9 °F - 63.0 °F 93% 30.13 in 7.0 mi Calm Calm - N/A   Clear
6:53 AM 66.0 °F - 63.0 °F 90% 30.16 in 7.0 mi Calm Calm - N/A   Clear
7:53 AM 70.0 °F - 64.9 °F 84% 30.18 in 10.0 mi Variable 3.5 mph - N/A   Clear
8:53 AM 71.1 °F - 64.9 °F 81% 30.18 in 10.0 mi Variable 3.5 mph - N/A   Clear
9:53 AM 75.0 °F - 66.0 °F 73% 30.18 in 10.0 mi Calm Calm - N/A   Clear
10:53 AM 77.0 °F - 66.0 °F 69% 30.19 in 10.0 mi Variable 3.5 mph - N/A   Clear
11:53 AM 80.1 °F 82.7 °F 68.0 °F 67% 30.19 in 10.0 mi Variable 3.5 mph - N/A   Clear
12:53 PM 81.0 °F 83.0 °F 66.0 °F 60% 30.17 in 10.0 mi Variable 4.6 mph - N/A   Clear
1:53 PM 81.0 °F 82.5 °F 64.0 °F 56% 30.14 in 10.0 mi Calm Calm - N/A   Scattered Clouds
2:53 PM 82.9 °F 84.4 °F 64.0 °F 53% 30.13 in 10.0 mi Variable 4.6 mph - N/A   Scattered Clouds
3:53 PM 82.9 °F 84.4 °F 64.0 °F 53% 30.11 in 10.0 mi Calm Calm - N/A   Clear
4:53 PM 84.9 °F 86.6 °F 64.9 °F 51% 30.11 in 10.0 mi Calm Calm - N/A   Clear
5:53 PM 84.0 °F 85.8 °F 64.9 °F 53% 30.09 in 10.0 mi Calm Calm - N/A   Clear
6:53 PM 82.9 °F 84.4 °F 64.0 °F 53% 30.08 in 10.0 mi Calm Calm - N/A   Clear
7:53 PM 80.1 °F 82.1 °F 66.0 °F 62% 30.09 in 10.0 mi Calm Calm - N/A   Clear
8:53 PM 77.0 °F - 64.0 °F 64% 30.10 in 10.0 mi Calm Calm - N/A   Clear
9:53 PM 77.0 °F - 63.0 °F 62% 30.12 in 10.0 mi Calm Calm - N/A   Scattered Clouds
10:53 PM 75.0 °F - 64.0 °F 69% 30.13 in 10.0 mi Calm Calm - N/A   Clear
11:53 PM 73.9 °F - 64.9 °F 73% 30.14 in 10.0 mi Calm Calm - N/A   Clear